Regional Weather Roundup
Issued by NWS Charleston, WV

Home | Current Version | Previous Version | Text Only | Print | Product List | Glossary On
Versions: 1 2 3 4 5 6 7 8 9 10 11 12 13 14 15 16 17 18 19 20 21 22 23 24 25 26 27 28 29 30 31 32 33 34 35 36 37 38 39 40 41 42 43 44 45 46 47 48 49
000
ASUS41 KRLX 280710
RWRRLX
West Virginia Regional Weather Roundup
National Weather Service Charleston WV
300 AM EDT TUE APR 28 2015

Note: "fair" indicates few or no clouds below 12,000 feet with no
significant weather and/or obstructions to visibility.

WVZ003-280800-
Northern Panhandle of West Virginia

CITY           SKY/WX    TMP DP  RH WIND       PRES   REMARKS
WHEELING       CLOUDY    40  34  79 NW3       30.03S
$$

WVZ009-280800-
Northwest West Virginia

CITY           SKY/WX    TMP DP  RH WIND       PRES   REMARKS
PARKERSBURG    CLOUDY    43  33  68 CALM      30.07F
$$

WVZ006-280800-
Western West Virginia

CITY           SKY/WX    TMP DP  RH WIND       PRES   REMARKS
HUNTINGTON     PTCLDY    41  34  76 NE5       30.04S
$$

WVZ015-280800-
West Central West Virginia

CITY           SKY/WX    TMP DP  RH WIND       PRES   REMARKS
CHARLESTON     PTCLDY    42  33  70 N3        30.03F
$$

WVZ022-031-280800-
North Central West Virginia

CITY           SKY/WX    TMP DP  RH WIND       PRES   REMARKS
CLARKSBURG     CLOUDY    42  33  70 NW6       30.02F
MORGANTOWN     CLOUDY    42  32  67 NW5       30.02F
$$

WVZ025-035-042-045-280800-
Southern West Virginia

CITY           SKY/WX    TMP DP  RH WIND       PRES   REMARKS
BECKLEY        CLOUDY    41  32  70 N13       29.97F
LOGAN          MOCLDY    43  36  75 VRB7      29.97F
BLUEFIELD      PTCLDY    42  31  64 CALM      29.96F
LEWISBURG      CLOUDY    43  33  67 N3        29.97S
$$

WVZ047-280800-
Northern Mountains of West Virginia

CITY           SKY/WX    TMP DP  RH WIND       PRES   REMARKS
ELKINS         CLOUDY    40  30  67 CALM      30.00S
$$

WVZ052-280800-
Eastern Panhandle of West Virginia

CITY           SKY/WX    TMP DP  RH WIND       PRES   REMARKS
MARTINSBURG    CLOUDY    47  33  58 NW10      29.94F
PETERSBURG     PTCLDY    44  31  60 CALM      30.00S
$$


USA.gov is the U.S. government's official web portal to all federal, state and local government web resources and services.